[[{"header":{"parameterUnit":"m.s-1","parameterCategory":1,"la1":30.2991,"la2":30.254,"lo1":-89.0895,"lo2":-89.0444,"dy":0.0017,"dx":0.0017,"nx":28,"ny":28,"refTime":"2024-03-12T09:00:00:Z","depth":0,"parameterNumber":2,"parameterNumberName":"U-component_of_WINDS"},"data":[0,0,0,0,0,0,0,0,0,0,0,0,0,0,0,0,0,0,0,0,0,0,0,0,0,0,0,0,0,0,0,0,0,0,0,0,0,0,0,0,0,0,0,0,0,0,0,0,0,0,0,0,0,0,0,0,0,0,-1.8469,-1.8469,0,-1.8491,-1.8492,-1.8492,-1.8414,-1.8411,-1.8409,-1.8407,-1.8434,-1.8436,-1.8439,0,0,0,0,0,0,0,0,0,0,0,0,0,-1.8364,-1.8366,-1.8469,-1.8469,-1.847,-1.8491,-1.8492,-1.8492,-1.8414,-1.8411,-1.8408,-1.8406,-1.8433,-1.8436,-1.844,0,0,0,0,0,0,0,0,0,0,0,0,0,-1.84,-1.8367,-1.8469,-1.8433,-1.843,-1.8491,-1.8492,-1.8492,-1.8415,-1.8411,-1.8408,-1.8404,-1.8432,-1.8436,-1.844,-1.8538,0,0,-1.8453,-1.8455,0,0,0,0,0,0,0,0,-1.8398,-1.8404,-1.8438,-1.8436,-1.8433,-1.8446,-1.8464,-1.8508,-1.8416,-1.8421,-1.8407,-1.8403,-1.8441,-1.8444,-1.8456,-1.8539,-1.854,-1.8454,-1.8456,-1.8458,-1.846,0,0,0,0,0,0,0,-1.8396,-1.8403,-1.8478,-1.8439,-1.8436,-1.8418,-1.8419,-1.8472,-1.8451,-1.842,-1.8414,-1.8418,-1.8439,-1.8452,-1.8456,-1.8541,-1.8454,-1.8458,-1.846,-1.8462,-1.8706,-1.8709,0,0,0,0,0,0,-1.8397,-1.8401,-1.8477,-1.8479,-1.8406,-1.8422,-1.8424,-1.8445,-1.845,-1.8447,-1.8421,-1.8414,-1.8447,-1.8451,-1.8457,-1.8572,-1.8458,-1.8462,-1.8465,-1.8702,-1.8706,-1.8711,0,0,0,0,0,0,-1.8396,-1.8405,-1.8476,-1.8438,-1.8446,-1.8428,-1.8453,-1.8448,-1.8461,-1.845,-1.8446,-1.8438,-1.8444,-1.8451,-1.8518,-1.8572,-1.8464,-1.8468,-1.8697,-1.8703,-1.8708,-1.8804,0,0,0,0,0,0,-1.8393,-1.8405,-1.8441,-1.844,-1.8448,-1.8536,-1.8456,-1.8451,-1.8468,-1.846,-1.8466,-1.8463,-1.8442,-1.8512,-1.8523,-1.8576,-1.8472,-1.8692,-1.87,-1.8707,-1.8796,-1.8812,-1.8826,0,0,0,0,0,-1.8389,-1.8467,-1.8443,-1.8452,-1.8493,-1.8539,-1.8545,-1.8517,-1.8473,-1.851,-1.8503,-1.8463,-1.8564,-1.852,-1.8531,-1.8587,-1.8689,-1.8698,-1.8706,-1.8789,-1.8809,-1.8825,0,0,0,0,0,0,-1.8476,-1.8466,-1.8439,-1.8519,-1.8531,-1.8526,-1.8571,-1.8539,-1.8564,-1.8555,-1.8521,-1.8523,-1.8597,-1.8598,-1.8549,-1.8682,-1.8619,-1.8631,-1.8678,-1.8697,-1.8712,-1.8711,-1.8475,0,0,0,0,0,-1.8504,-1.8542,-1.8532,-1.8603,-1.861,-1.859,-1.8609,-1.8587,-1.8598,-1.8603,-1.8601,-1.8615,-1.8649,-1.8673,-1.8704,-1.8795,-1.8796,-1.8839,-1.8854,-1.8867,-1.8877,-1.8926,-1.8946,-1.8739,-1.8739,-1.8739,0,0,-1.8564,-1.8563,-1.8589,-1.8621,-1.8627,-1.8668,-1.8595,-1.8641,-1.8672,-1.861,-1.8674,-1.8673,-1.8686,-1.8765,-1.88,-1.8769,-1.8934,-1.8878,-1.8888,-1.8892,-1.8937,-1.8957,-1.8974,-1.8745,-1.8744,-1.8743,0,0,-1.8692,-1.8695,-1.8755,-1.8763,-1.8773,-1.8759,-1.8773,-1.8774,-1.8771,-1.8833,-1.8789,-1.8825,-1.8886,-1.8897,-1.8911,-1.9044,-1.9009,-1.9056,-1.9135,-1.9184,-1.92,-1.9214,-1.9263,-1.9281,-1.9066,-1.9066,-1.9066,0,-1.8765,-1.8823,-1.879,-1.884,-1.8856,-1.8801,-1.8862,-1.8872,-1.8893,-1.8906,-1.8869,-1.8944,-1.8949,-1.9031,-1.9064,-1.9076,-1.9093,-1.9055,-1.92,-1.9214,-1.9227,-1.9273,-1.9291,-1.9072,-1.9071,-1.9071,-1.907,0,-1.8913,-1.8954,-1.9002,-1.9022,-1.9043,-1.9098,-1.9075,-1.9101,-1.9077,-1.9067,-1.9133,-1.9136,-1.9168,-1.9186,-1.9163,-1.9265,-1.9245,-1.9205,-1.9142,-1.9253,-1.9296,-1.9313,-1.908,-1.9078,-1.9076,-1.9075,0,0,-1.9097,-1.9098,-1.9116,-1.9125,-1.9132,-1.9164,-1.9218,-1.9247,-1.9271,-1.9287,-1.9332,-1.9384,-1.9347,-1.9363,-1.9341,-1.9384,-1.9491,-1.9338,-1.9338,-1.9367,-1.9605,-1.9636,-1.9656,-1.9467,-1.947,-1.9473,-1.9604,0,-1.9224,-1.9314,-1.9286,-1.9378,-1.9416,-1.9365,-1.9412,-1.9423,-1.9415,-1.9448,-1.944,-1.9479,-1.9426,-1.9436,-1.9475,-1.9469,-1.9538,-1.9459,-1.951,-1.9512,-1.9509,-1.9679,-1.9711,-1.9835,-1.962,-1.9623,-1.9625,0,-1.9384,-1.9406,-1.9501,-1.9502,-1.9517,-1.956,-1.9585,-1.9617,-1.9628,-1.962,-1.9638,-1.9607,-1.9661,-1.9597,-1.9672,-1.9619,-1.9638,-1.9639,-1.9643,-1.9648,-1.9576,-1.9689,-1.9873,-1.9892,-1.9651,-1.9649,-1.9647,0,-1.9511,-1.9563,-1.9627,-1.9636,-1.9639,-1.967,-1.9673,-1.9681,-1.9701,-1.9723,-1.9736,-1.9766,-1.9782,-1.9806,-1.9785,-1.974,-1.9864,-1.9798,-1.986,-1.9861,-1.9889,-1.9888,-2.0081,-1.99,-1.99,-1.99,-1.9899,0,-1.9656,-1.9716,-1.9684,-1.9723,-1.979,-1.9758,-1.9826,-1.9823,-1.983,-1.987,-1.9827,-1.9865,-1.9835,-1.9871,-1.9855,-1.992,-1.9927,-1.9923,-1.9919,-1.9928,-1.9928,-1.994,-1.9932,-1.9904,-1.9903,-1.9902,-1.9902,0,-1.9808,-1.9789,-1.9855,-1.9852,-1.9853,-1.9903,-1.9901,-1.9938,-1.9928,-1.9978,-1.9988,-1.9972,-2.0012,-1.9993,-2.0035,-2.0025,-2.0109,-2.0092,-2.0105,-2.0101,-2.0165,-2.016,-2.0373,-2.04,-2.0201,-2.0203,-2.0205,0,-1.9903,-1.9948,-1.995,-1.9972,-1.9978,-2.0015,-2.0035,-2.0006,-2.0028,-2.0045,-2.0081,-2.0117,-2.0144,-2.0211,-2.0204,-2.0236,-2.0221,-2.0293,-2.0225,-2.0233,-2.0223,-2.0221,-2.0226,-2.0307,-2.031,-2.0311,-2.0313,0,-2.0073,-2.0061,-2.009,-2.0117,-2.0142,-2.0162,-2.0178,-2.02,-2.0171,-2.0199,-2.0239,-2.026,-2.0302,-2.0339,-2.0368,-2.0372,-2.0339,-2.0334,-2.0351,-2.0361,-2.0367,-2.0365,-2.0143,-2.033,-2.0328,-2.0327,-2.0326,-2.0325,-2.02,-2.0238,-2.0245,-2.028,-2.0289,-2.0305,-2.034,-2.0334,-2.0366,-2.0398,-2.0379,-2.0426,-2.0437,-2.0472,-2.0481,-2.0518,-2.049,-2.0513,-2.0519,-2.0526,-2.0535,-2.036,-2.0523,-2.0523,-2.0522,-2.0522,-2.0521,0,-2.0368,-2.037,-2.0402,-2.0426,-2.0454,-2.0419,-2.0435,-2.0461,-2.0503,-2.0515,-2.0543,-2.059,-2.0625,-2.0621,-2.0654,-2.0685,-2.0671,-2.0695,-2.0693,-2.0695,-2.0558,-2.0541,-2.0706,-2.0706,-2.0706,-2.0706,-2.0706,-2.0706,-2.0459,-2.0522,-2.0511,-2.0579,-2.0581,-2.0626,-2.0638,-2.0654,-2.0664,-2.0717,-2.0746,-2.0743,-2.075,-2.0783,-2.0815,-2.0813,-2.0827,-2.0858,-2.085,-2.0723,-2.0704,-2.0687,-2.0671,-2.0861,-2.0861,-2.0984,-2.0985,-2.0986]},{"header":{"parameterUnit":"m.s-1","parameterCategory":1,"la1":30.2991,"la2":30.254,"lo1":-89.0895,"lo2":-89.0444,"dy":0.0017,"dx":0.0017,"nx":28,"ny":28,"refTime":"2024-03-12T09:00:00:Z","depth":0,"parameterNumber":3,"parameterNumberName":"V-component_of_WINDS"},"data":[0,0,0,0,0,0,0,0,0,0,0,0,0,0,0,0,0,0,0,0,0,0,0,0,0,0,0,0,0,0,0,0,0,0,0,0,0,0,0,0,0,0,0,0,0,0,0,0,0,0,0,0,0,0,0,0,0,0,-0.8095,-0.8095,0,-0.8118,-0.8119,-0.8119,-0.8096,-0.8096,-0.8095,-0.8094,-0.8119,-0.812,-0.8122,0,0,0,0,0,0,0,0,0,0,0,0,0,-0.803,-0.8032,-0.8095,-0.8095,-0.8095,-0.8118,-0.8119,-0.8119,-0.8097,-0.8096,-0.8094,-0.8093,-0.8118,-0.812,-0.8122,0,0,0,0,0,0,0,0,0,0,0,0,0,-0.8057,-0.8032,-0.8095,-0.8087,-0.8087,-0.8118,-0.8119,-0.8119,-0.8097,-0.8096,-0.8094,-0.8093,-0.8118,-0.812,-0.8122,-0.8163,0,0,-0.8129,-0.813,0,0,0,0,0,0,0,0,-0.8055,-0.8059,-0.8088,-0.8088,-0.8087,-0.8103,-0.8105,-0.8134,-0.8097,-0.8093,-0.8094,-0.8092,-0.8115,-0.8117,-0.8124,-0.8164,-0.8165,-0.8129,-0.813,-0.8131,-0.8132,0,0,0,0,0,0,0,-0.8053,-0.8058,-0.8104,-0.8088,-0.8088,-0.8082,-0.8085,-0.811,-0.8111,-0.8093,-0.8092,-0.8095,-0.8114,-0.8122,-0.8125,-0.8165,-0.8129,-0.8131,-0.8132,-0.8133,-0.8238,-0.824,0,0,0,0,0,0,-0.8052,-0.8057,-0.8103,-0.8105,-0.8068,-0.8085,-0.8087,-0.8099,-0.8111,-0.8111,-0.8096,-0.8094,-0.8119,-0.8122,-0.8126,-0.8174,-0.8131,-0.8133,-0.8135,-0.8237,-0.8239,-0.824,0,0,0,0,0,0,-0.8051,-0.8057,-0.8102,-0.808,-0.8086,-0.8087,-0.8101,-0.8101,-0.8109,-0.8113,-0.8113,-0.8104,-0.8118,-0.8122,-0.8153,-0.8174,-0.8134,-0.8137,-0.8235,-0.8237,-0.8239,-0.8271,0,0,0,0,0,0,-0.8049,-0.8056,-0.8072,-0.8081,-0.8087,-0.813,-0.8102,-0.8102,-0.8112,-0.811,-0.812,-0.8121,-0.8117,-0.815,-0.8156,-0.8177,-0.8138,-0.8233,-0.8236,-0.8239,-0.8268,-0.8274,-0.8279,0,0,0,0,0,-0.8047,-0.808,-0.8073,-0.8079,-0.8107,-0.8131,-0.8135,-0.813,-0.8114,-0.813,-0.8132,-0.8121,-0.8171,-0.8154,-0.816,-0.8182,-0.8232,-0.8235,-0.8239,-0.8265,-0.8272,-0.8278,0,0,0,0,0,0,-0.8075,-0.8081,-0.8073,-0.8111,-0.812,-0.8128,-0.8147,-0.8138,-0.8153,-0.815,-0.8143,-0.8146,-0.8178,-0.8183,-0.8163,-0.8221,-0.8199,-0.8204,-0.8217,-0.8224,-0.8229,-0.8228,-0.814,0,0,0,0,0,-0.8085,-0.8105,-0.8109,-0.8142,-0.8147,-0.8146,-0.8157,-0.8152,-0.8162,-0.8167,-0.8171,-0.8182,-0.82,-0.8212,-0.8229,-0.8268,-0.827,-0.8286,-0.8291,-0.8295,-0.83,-0.832,-0.8327,-0.8251,-0.8251,-0.8251,0,0,-0.8107,-0.8113,-0.8126,-0.8147,-0.8154,-0.8175,-0.815,-0.8173,-0.8188,-0.817,-0.82,-0.8203,-0.8214,-0.8249,-0.8265,-0.8254,-0.8321,-0.83,-0.8303,-0.8305,-0.8324,-0.8332,-0.8338,-0.8253,-0.8253,-0.8252,0,0,-0.8157,-0.8164,-0.8191,-0.8198,-0.8209,-0.8208,-0.8215,-0.8223,-0.8225,-0.8254,-0.8241,-0.8258,-0.829,-0.8298,-0.8306,-0.8358,-0.8347,-0.8363,-0.8392,-0.8412,-0.8418,-0.8423,-0.8442,-0.8448,-0.8367,-0.8367,-0.8367,0,-0.8183,-0.8213,-0.8206,-0.823,-0.8239,-0.8223,-0.8251,-0.8258,-0.8274,-0.8281,-0.8268,-0.8307,-0.8313,-0.835,-0.8362,-0.8369,-0.8376,-0.8363,-0.8417,-0.8423,-0.8428,-0.8445,-0.8452,-0.8369,-0.8369,-0.8369,-0.8369,0,-0.8244,-0.8265,-0.8286,-0.8301,-0.8313,-0.8338,-0.8335,-0.8348,-0.8341,-0.8342,-0.8371,-0.8378,-0.8395,-0.8403,-0.8398,-0.8439,-0.8432,-0.8418,-0.8396,-0.8437,-0.8453,-0.846,-0.8372,-0.8371,-0.8371,-0.837,0,0,-0.8314,-0.8324,-0.8332,-0.8338,-0.8348,-0.8364,-0.8388,-0.8405,-0.8416,-0.8427,-0.8447,-0.8473,-0.846,-0.847,-0.8465,-0.8482,-0.8522,-0.8466,-0.8467,-0.8477,-0.8568,-0.8578,-0.8586,-0.8515,-0.8516,-0.8517,-0.8567,0,-0.8365,-0.8407,-0.8401,-0.8441,-0.846,-0.8444,-0.8465,-0.8473,-0.8474,-0.849,-0.849,-0.8509,-0.8491,-0.8496,-0.8512,-0.8514,-0.854,-0.851,-0.8534,-0.8535,-0.8532,-0.8594,-0.8606,-0.8653,-0.8573,-0.8574,-0.8575,0,-0.843,-0.8443,-0.8485,-0.8491,-0.8499,-0.8518,-0.8532,-0.8547,-0.8556,-0.8555,-0.8565,-0.8556,-0.858,-0.8556,-0.8589,-0.8568,-0.8577,-0.8579,-0.8581,-0.8584,-0.8558,-0.8599,-0.8667,-0.8674,-0.8585,-0.8584,-0.8583,0,-0.8477,-0.8505,-0.8533,-0.8539,-0.8547,-0.8561,-0.8564,-0.8572,-0.8582,-0.8594,-0.8601,-0.8616,-0.8624,-0.8636,-0.8631,-0.8614,-0.8664,-0.8641,-0.8664,-0.8665,-0.8677,-0.8676,-0.8748,-0.8681,-0.8681,-0.8681,-0.8681,0,-0.8535,-0.8561,-0.8554,-0.8572,-0.8601,-0.8593,-0.8622,-0.8624,-0.863,-0.8648,-0.8635,-0.8651,-0.8644,-0.866,-0.8657,-0.8684,-0.8688,-0.8688,-0.8687,-0.8689,-0.8689,-0.8696,-0.8693,-0.8683,-0.8683,-0.8682,-0.8682,0,-0.8593,-0.8589,-0.8619,-0.8624,-0.8625,-0.8646,-0.865,-0.8667,-0.8665,-0.8688,-0.8692,-0.8691,-0.8709,-0.8705,-0.8725,-0.8723,-0.8757,-0.8752,-0.8754,-0.8753,-0.8777,-0.8775,-0.8856,-0.8866,-0.8793,-0.8794,-0.8794,0,-0.863,-0.865,-0.8656,-0.8667,-0.8671,-0.8689,-0.8699,-0.8691,-0.8702,-0.8713,-0.8728,-0.8745,-0.8758,-0.8788,-0.8788,-0.8803,-0.8798,-0.8825,-0.8801,-0.8802,-0.8799,-0.8798,-0.88,-0.8831,-0.8832,-0.8832,-0.8833,0,-0.8697,-0.8694,-0.8708,-0.8722,-0.8734,-0.8745,-0.8755,-0.8764,-0.8757,-0.877,-0.8788,-0.8798,-0.8818,-0.8835,-0.8849,-0.8852,-0.8842,-0.884,-0.8847,-0.885,-0.8851,-0.8851,-0.8768,-0.8839,-0.8838,-0.8838,-0.8838,-0.8837,-0.8746,-0.8762,-0.8769,-0.8786,-0.8792,-0.8801,-0.8816,-0.8816,-0.8831,-0.8847,-0.8841,-0.8862,-0.8869,-0.8886,-0.8891,-0.8907,-0.8897,-0.8906,-0.8909,-0.8911,-0.8914,-0.8848,-0.891,-0.8909,-0.8909,-0.8909,-0.8909,0,-0.8812,-0.8815,-0.8831,-0.8844,-0.8857,-0.8844,-0.8854,-0.8865,-0.8884,-0.8891,-0.8904,-0.8924,-0.894,-0.8941,-0.8956,-0.8969,-0.8964,-0.8973,-0.8972,-0.8973,-0.8922,-0.8916,-0.8976,-0.8976,-0.8976,-0.8976,-0.8976,-0.8976,-0.8848,-0.8876,-0.8873,-0.8903,-0.8906,-0.8926,-0.8932,-0.894,-0.8946,-0.8969,-0.8982,-0.8982,-0.8987,-0.9002,-0.9016,-0.9016,-0.9022,-0.9033,-0.9031,-0.8984,-0.8977,-0.8971,-0.8964,-0.9034,-0.9034,-0.9081,-0.9081,-0.9081]}]]